2020-12-28 00:07:46 r, 16.04m,0000000032Hz,0000014318c,0000000.031s,-005.9C,00002191
2020-12-28 00:17:46 r, 16.26m,0000000026Hz,0000017592c,0000000.038s,-006.2C,00002191
2020-12-28 00:27:46 r, 16.53m,0000000021Hz,0000022516c,0000000.049s,-006.2C,00002191
2020-12-28 00:37:46 r, 16.75m,0000000017Hz,0000027479c,0000000.060s,-006.5C,00002191
2020-12-28 00:47:46 r, 16.89m,0000000015Hz,0000031354c,0000000.068s,-006.8C,00002191
2020-12-28 00:57:47 r, 17.04m,0000000013Hz,0000035787c,0000000.078s,-006.8C,00002191
2020-12-28 01:07:46 r, 17.16m,0000000011Hz,0000040103c,0000000.087s,-007.1C,00002191
2020-12-28 01:17:46 r, 17.27m,0000000011Hz,0000044255c,0000000.096s,-007.1C,00002191
2020-12-28 01:27:48 r, 17.38m,0000000009Hz,0000048660c,0000000.106s,-007.1C,00002191
2020-12-28 01:37:46 r, 17.48m,0000000008Hz,0000053253c,0000000.116s,-007.5C,00002191
2020-12-28 01:47:46 r, 17.54m,0000000008Hz,0000056686c,0000000.123s,-007.5C,00002191
2020-12-28 01:57:46 r, 17.62m,0000000008Hz,0000060593c,0000000.131s,-007.8C,00002191
2020-12-28 02:07:46 r, 17.70m,0000000007Hz,0000065159c,0000000.141s,-008.1C,00002191
2020-12-28 02:17:46 r, 17.78m,0000000006Hz,0000070178c,0000000.152s,-008.1C,00002191
2020-12-28 02:27:46 r, 17.72m,0000000007Hz,0000067170c,0000000.146s,-008.4C,00002191
2020-12-28 02:37:46 r, 17.89m,0000000006Hz,0000078358c,0000000.170s,-008.4C,00002191
2020-12-28 02:47:46 r, 17.94m,0000000006Hz,0000082935c,0000000.180s,-008.4C,00002191
2020-12-28 02:57:47 r, 18.00m,0000000006Hz,0000087422c,0000000.190s,-008.8C,00002191
2020-12-28 03:07:46 r, 18.08m,0000000005Hz,0000093352c,0000000.203s,-008.8C,00002191
2020-12-28 03:17:46 r, 18.10m,0000000005Hz,0000095464c,0000000.207s,-009.1C,00002191
2020-12-28 03:27:48 r, 18.14m,0000000005Hz,0000098840c,0000000.214s,-009.4C,00002191
2020-12-28 03:37:46 r, 18.18m,0000000004Hz,0000102421c,0000000.222s,-009.4C,00002191
2020-12-28 03:47:46 r, 18.21m,0000000004Hz,0000105547c,0000000.229s,-009.4C,00002191
2020-12-28 03:57:48 r, 18.25m,0000000004Hz,0000109490c,0000000.238s,-009.4C,00002191
2020-12-28 04:07:46 r, 18.28m,0000000004Hz,0000113094c,0000000.245s,-009.4C,00002191
2020-12-28 04:17:46 r, 18.32m,0000000004Hz,0000116530c,0000000.253s,-009.4C,00002191
2020-12-28 04:27:46 r, 18.36m,0000000004Hz,0000121022c,0000000.263s,-009.4C,00002191
2020-12-28 04:37:47 r, 18.41m,0000000003Hz,0000126670c,0000000.275s,-009.4C,00002191
2020-12-28 04:47:46 r, 18.44m,0000000004Hz,0000130545c,0000000.283s,-009.4C,00002191
2020-12-28 04:57:47 r, 18.50m,0000000003Hz,0000138009c,0000000.299s,-009.7C,00002191
2020-12-28 05:07:46 r, 18.91m,0000000002Hz,0000201336c,0000000.437s,-009.7C,00002191
2020-12-28 05:17:46 r, 18.61m,0000000003Hz,0000151634c,0000000.329s,-009.4C,00002191
2020-12-28 05:27:46 r, 19.02m,0000000002Hz,0000223203c,0000000.484s,-009.4C,00002191
2020-12-28 05:37:48 r, 18.66m,0000000003Hz,0000159158c,0000000.345s,-009.4C,00002191
2020-12-28 05:47:46 r, 19.11m,0000000002Hz,0000240790c,0000000.523s,-009.4C,00002191
2020-12-28 05:57:48 r, 19.04m,0000000002Hz,0000225805c,0000000.490s,-009.4C,00002191
2020-12-28 06:07:46 r, 19.14m,0000000002Hz,0000248648c,0000000.540s,-009.4C,00002191
2020-12-28 06:17:46 r, 19.03m,0000000002Hz,0000224323c,0000000.487s,-009.1C,00002191
2020-12-28 06:27:46 r, 19.23m,0000000002Hz,0000270888c,0000000.588s,-008.8C,00002191
2020-12-28 06:37:47 r, 19.63m,0000000002Hz,0000388739c,0000000.844s,-008.8C,00002191
2020-12-28 06:47:46 r, 19.74m,0000000001Hz,0000432028c,0000000.938s,-008.8C,00002191
2020-12-28 06:57:47 r, 19.70m,0000000001Hz,0000417610c,0000000.906s,-009.1C,00002191
2020-12-28 07:07:46 r, 19.23m,0000000001Hz,0000270700c,0000000.587s,-009.1C,00002191
2020-12-28 07:17:46 r, 18.17m,0000000004Hz,0000101544c,0000000.220s,-009.4C,00002191
2020-12-28 07:27:46 r, 16.77m,0000000016Hz,0000028087c,0000000.061s,-009.4C,00002191
2020-12-28 07:37:48 r, 15.10m,0000000075Hz,0000006013c,0000000.013s,-009.1C,00002191
2020-12-28 07:47:46 r, 13.05m,0000000511Hz,0000000000c,0000000.000s,-009.4C,00002191
2020-12-28 07:57:48 r, 11.22m,0000002739Hz,0000000000c,0000000.000s,-009.1C,00002191
2020-12-28 08:07:46 r, 09.71m,0000011035Hz,0000000000c,0000000.000s,-008.4C,00002191
2020-12-28 08:17:46 r, 08.08m,0000049904Hz,0000000000c,0000000.000s,-008.1C,00002191
2020-12-28 08:27:48 r, 07.27m,0000104573Hz,0000000000c,0000000.000s,-007.5C,00002191
2020-12-28 08:37:46 r, 06.68m,0000179686Hz,0000000000c,0000000.000s,-006.8C,00002191
2020-12-28 08:47:46 r, 06.18m,0000285078Hz,0000000000c,0000000.000s,-006.5C,00002191
2020-12-28 08:57:46 r, 00.00m,0000425495Hz,0000000000c,0000000.000s,-005.9C,00002191
2020-12-28 09:07:47 r, 00.00m,0000556068Hz,0000000000c,0000000.000s,-005.2C,00002191
2020-12-28 09:17:45 r, 00.00m,0000599621Hz,0000000000c,0000000.000s,-004.2C,00002191
2020-12-28 09:27:47 r, 00.00m,0000599430Hz,0000000000c,0000000.000s,-003.9C,00002191
2020-12-28 09:37:46 r, 00.00m,0000599395Hz,0000000000c,0000000.000s,-003.0C,00002191
2020-12-28 09:47:46 r, 00.00m,0000599505Hz,0000000000c,0000000.000s,-002.3C,00002191
2020-12-28 09:57:46 r, 00.00m,0000599334Hz,0000000000c,0000000.000s,-002.0C,00002191
2020-12-28 10:07:48 r, 00.00m,0000599295Hz,0000000000c,0000000.000s,-001.3C,00002191
2020-12-28 10:17:45 r, 00.00m,0000599319Hz,0000000000c,0000000.000s,-001.0C,00002191
2020-12-28 10:27:48 r, 00.00m,0000599234Hz,0000000000c,0000000.000s,-000.7C,00002191
2020-12-28 10:37:46 r, 00.00m,0000599156Hz,0000000000c,0000000.000s,-000.4C,00002191
2020-12-28 10:47:46 r, 00.00m,0000599165Hz,0000000000c,0000000.000s, 000.1C,00002191
2020-12-28 10:57:48 r, 00.00m,0000599089Hz,0000000000c,0000000.000s, 000.3C,00002191
2020-12-28 11:07:46 r, 00.00m,0000599079Hz,0000000000c,0000000.000s, 000.6C,00002191
2020-12-28 11:17:46 r, 00.00m,0000599070Hz,0000000000c,0000000.000s, 000.9C,00002191
2020-12-28 11:27:46 r, 00.00m,0000599050Hz,0000000000c,0000000.000s, 001.2C,00002191
2020-12-28 11:37:47 r, 00.00m,0000599013Hz,0000000000c,0000000.000s, 001.9C,00002191
2020-12-28 11:47:45 r, 00.00m,0000599044Hz,0000000000c,0000000.000s, 001.9C,00002191
2020-12-28 11:57:47 r, 00.00m,0000599035Hz,0000000000c,0000000.000s, 002.2C,00002191
2020-12-28 12:07:46 r, 00.00m,0000598893Hz,0000000000c,0000000.000s, 002.9C,00002191
2020-12-28 12:17:45 r, 00.00m,0000598872Hz,0000000000c,0000000.000s, 002.9C,00002191
2020-12-28 12:27:46 r, 00.00m,0000598942Hz,0000000000c,0000000.000s, 003.2C,00002191
2020-12-28 12:37:48 r, 00.00m,0000598748Hz,0000000000c,0000000.000s, 003.5C,00002191
2020-12-28 12:47:45 r, 00.00m,0000598949Hz,0000000000c,0000000.000s, 003.5C,00002191
2020-12-28 12:57:48 r, 00.00m,0000598865Hz,0000000000c,0000000.000s, 003.8C,00002191
2020-12-28 13:07:46 r, 00.00m,0000598902Hz,0000000000c,0000000.000s, 003.8C,00002191
2020-12-28 13:17:45 r, 00.00m,0000598815Hz,0000000000c,0000000.000s, 004.1C,00002191
2020-12-28 13:27:48 r, 00.00m,0000598860Hz,0000000000c,0000000.000s, 004.1C,00002191
2020-12-28 13:37:46 r, 00.00m,0000598852Hz,0000000000c,0000000.000s, 003.5C,00002191
2020-12-28 13:47:45 r, 00.00m,0000598986Hz,0000000000c,0000000.000s, 002.5C,00002191
2020-12-28 13:57:45 r, 00.00m,0000598972Hz,0000000000c,0000000.000s, 001.9C,00002191
2020-12-28 14:07:48 r, 00.00m,0000599034Hz,0000000000c,0000000.000s, 001.9C,00002191
2020-12-28 14:17:46 r, 00.00m,0000599049Hz,0000000000c,0000000.000s, 001.6C,00002191
2020-12-28 14:27:46 r, 00.00m,0000599031Hz,0000000000c,0000000.000s, 001.9C,00002191
2020-12-28 14:37:48 r, 00.00m,0000599038Hz,0000000000c,0000000.000s, 001.6C,00002191
2020-12-28 14:47:45 r, 00.00m,0000599051Hz,0000000000c,0000000.000s, 001.2C,00002191
2020-12-28 14:57:46 r, 00.00m,0000599071Hz,0000000000c,0000000.000s, 000.6C,00002191
2020-12-28 15:07:46 r, 00.00m,0000599053Hz,0000000000c,0000000.000s, 000.6C,00002191
2020-12-28 15:17:46 r, 00.00m,0000599079Hz,0000000000c,0000000.000s, 000.3C,00002191
2020-12-28 15:27:45 r, 00.00m,0000546876Hz,0000000000c,0000000.000s, 000.1C,00002191
2020-12-28 15:37:46 r, 00.00m,0000522844Hz,0000000000c,0000000.000s, 000.1C,00002191
2020-12-28 15:47:46 r, 00.00m,0000442937Hz,0000000000c,0000000.000s, 000.6C,00002191
2020-12-28 15:57:45 r, 05.92m,0000362086Hz,0000000000c,0000000.000s, 000.9C,00002191
2020-12-28 16:07:47 r, 06.20m,0000279167Hz,0000000000c,0000000.000s, 000.9C,00002191
2020-12-28 16:17:45 r, 06.59m,0000196429Hz,0000000000c,0000000.000s, 000.9C,00002191
2020-12-28 16:27:46 r, 07.11m,0000120668Hz,0000000000c,0000000.000s, 000.6C,00002191
2020-12-28 16:37:48 r, 07.87m,0000060048Hz,0000000000c,0000000.000s, 000.1C,00002191
2020-12-28 16:47:45 r, 08.97m,0000021961Hz,0000000000c,0000000.000s,-000.7C,00002191
2020-12-28 16:57:45 r, 10.48m,0000005429Hz,0000000000c,0000000.000s,-001.3C,00002191
2020-12-28 17:07:48 r, 12.34m,0000000982Hz,0000000000c,0000000.000s,-001.7C,00002191
2020-12-28 17:17:45 r, 14.27m,0000000166Hz,0000000000c,0000000.000s,-002.0C,00002191
2020-12-28 17:27:45 r, 16.04m,0000000033Hz,0000014263c,0000000.031s,-002.0C,00002191
2020-12-28 17:37:46 r, 17.38m,0000000009Hz,0000049136c,0000000.107s,-002.0C,00002191
2020-12-28 17:47:45 r, 18.15m,0000000004Hz,0000099874c,0000000.217s,-002.0C,00002191
2020-12-28 17:57:45 r, 18.43m,0000000004Hz,0000128909c,0000000.280s,-002.0C,00002191
2020-12-28 18:07:46 r, 18.46m,0000000003Hz,0000133585c,0000000.290s,-002.0C,00002191
2020-12-28 18:17:45 r, 18.43m,0000000003Hz,0000129394c,0000000.281s,-002.0C,00002191
2020-12-28 18:27:45 r, 18.37m,0000000004Hz,0000122163c,0000000.265s,-002.0C,00002191
2020-12-28 18:37:47 r, 18.31m,0000000004Hz,0000115265c,0000000.250s,-002.0C,00002191
2020-12-28 18:47:45 r, 18.24m,0000000004Hz,0000108583c,0000000.236s,-001.7C,00002191
2020-12-28 18:57:45 r, 18.18m,0000000004Hz,0000102558c,0000000.223s,-001.7C,00002191
2020-12-28 19:07:48 r, 18.12m,0000000004Hz,0000096814c,0000000.210s,-001.3C,00002191
2020-12-28 19:17:45 r, 18.05m,0000000005Hz,0000090962c,0000000.197s,-001.3C,00002191
2020-12-28 19:27:45 r, 17.96m,0000000005Hz,0000084268c,0000000.183s,-001.3C,00002191
2020-12-28 19:37:48 r, 17.89m,0000000006Hz,0000078664c,0000000.171s,-001.3C,00002191
2020-12-28 19:47:45 r, 17.80m,0000000007Hz,0000072320c,0000000.157s,-001.3C,00002191
2020-12-28 19:57:45 r, 17.71m,0000000007Hz,0000066850c,0000000.145s,-001.3C,00002191
2020-12-28 20:07:46 r, 17.64m,0000000007Hz,0000062409c,0000000.135s,-001.3C,00002191
2020-12-28 20:17:45 r, 17.55m,0000000008Hz,0000057355c,0000000.124s,-001.3C,00002191
2020-12-28 20:27:45 r, 17.45m,0000000009Hz,0000052718c,0000000.114s,-001.3C,00002191
2020-12-28 20:37:46 r, 17.36m,0000000010Hz,0000048344c,0000000.105s,-001.3C,00002191
2020-12-28 20:47:45 r, 17.24m,0000000011Hz,0000043463c,0000000.094s,-001.0C,00002191
2020-12-28 20:57:46 r, 17.10m,0000000013Hz,0000037945c,0000000.082s,-001.0C,00002191
2020-12-28 21:07:47 r, 16.97m,0000000013Hz,0000033647c,0000000.073s,-001.3C,00002191
2020-12-28 21:17:45 r, 16.78m,0000000016Hz,0000028369c,0000000.062s,-001.3C,00002191
2020-12-28 21:27:45 r, 16.62m,0000000019Hz,0000024298c,0000000.053s,-001.3C,00002191
2020-12-28 21:37:48 r, 16.40m,0000000023Hz,0000019854c,0000000.043s,-001.3C,00002191
2020-12-28 21:47:46 r, 16.15m,0000000029Hz,0000015775c,0000000.034s,-001.7C,00002191
2020-12-28 21:57:45 r, 15.81m,0000000039Hz,0000011581c,0000000.025s,-001.7C,00002191
2020-12-28 22:07:46 r, 15.55m,0000000051Hz,0000009090c,0000000.020s,-001.3C,00002191
2020-12-28 22:17:47 r, 15.45m,0000000056Hz,0000008301c,0000000.018s,-001.3C,00002191
2020-12-28 22:27:45 r, 15.43m,0000000057Hz,0000008128c,0000000.018s,-001.7C,00002191
2020-12-28 22:37:47 r, 15.33m,0000000062Hz,0000007446c,0000000.016s,-001.7C,00002191
2020-12-28 22:47:46 r, 15.17m,0000000072Hz,0000006413c,0000000.014s,-001.7C,00002191
2020-12-28 22:57:45 r, 15.01m,0000000084Hz,0000005510c,0000000.012s,-002.0C,00002191
2020-12-28 23:07:46 r, 14.88m,0000000093Hz,0000004946c,0000000.011s,-002.0C,00002191
2020-12-28 23:17:48 r, 14.85m,0000000096Hz,0000004784c,0000000.010s,-002.0C,00002191
2020-12-28 23:27:45 r, 14.86m,0000000096Hz,0000004815c,0000000.010s,-001.7C,00002191
2020-12-28 23:37:48 r, 14.91m,0000000091Hz,0000005061c,0000000.011s,-001.7C,00002191
2020-12-28 23:47:46 r, 15.01m,0000000082Hz,0000005555c,0000000.012s,-001.7C,00002191
2020-12-28 23:57:45 r, 15.10m,0000000076Hz,0000006032c,0000000.013s,-001.7C,00002191
